Showing default

IRIDIUM 149, 43250

Orbit data source: Space-Track

IRIDIUM 149, 43250 is a payload satellite owned by Iridium (US) in LEO that was launched on Fri, 30 Mar 2018 UTC via an FALCON 9 launch vehicle from the Air Force Western Test Range (AFWTR). Payload-class satellites include a variety of spacecraft equipped with specific instruments for various scientific and technological missions. These include communications satellites like Starlink; space stations such as the ISS; scientific satellites like the Hubble; Earth observation satellites from companies like Planet Labs, Umbra, and HawkEye 360; GPS; miniature CubeSats for education and research; and military/defense satellites.

Loading next visibility...
Identifier
43250, 2018-030B
Orbit
LEO
Country
Flag of USUS
Related business
Manufacturer
OATK SSG Gilbert
Mission
Operational Commercial Communications
Bus & Motor
ELITEBUS, Unknown motor
Mass
860 kg wet, 700 kg dry
Launch date (UTC)
2018-03-30 (8 years ago)
Launch vehicle
FALCON 9
Launch site
Air Force Western Test Range (AFWTR)
Object type
Payload
Rocket body
Debris
Shape & HBR
Trap Box + 2 Pan, 4.8 m
Radar Cross Section
10.154 m², Large (>1 m²)

Expand to show TLE details & history
Last TLE update: 8 hours ago

TLE from 8 hours ago
0 IRIDIUM 149
1 43250U 18030B   25347.02476170  .00000235  00000-0  76763-4 0  9997
2 43250  86.3965   8.1956 0002179  93.7619 266.3826 14.34218540403479
Epoch: 2025-12-13T00:35Z
TLE epoch observation values (Epoch: 2025-12-13T00:35:39.410Z)
Latitude
-0.00005°
Longitude
-82.67658°
Altitude
780.814 km
Speed
7.463 km/s
True Right ascension
00h 32m 46s
True Declination
0° 00' 00"
Sunlit
Object was in daylight at epoch
Visualization orbit readout
Latitude
Unknown
Longitude
Unknown
Altitude
Unknown
Speed
Unknown
Apparent Right ascension
Unknown
Apparent Declination
Unknown
Sunlit
N/A
Visualization observer readout
Local Sidereal Time
07:07:23
Azimuth
Unknown
Elevation
Unknown
Doppler factor
Unknown
Orbital elements
Apogee altitude
776.188 km
Perigee altitude
773.07 km
Semi-major axis
7,152.766 km
Eccentricity
0.00022
Inclination
86.3965°
RAAN
8.1956°
Arg. of periapsis
93.7619°
True anomaly
266.35768°
Mean anomaly
266.3826°
Eccentric anomaly
266.37014°
Mean motion
3.58783 °/min
Orbital period
100.34 mins
BSTAR
0.000076763
Loading maneuver chart data...
Computing Atmospheric mass density...
Loading historical data...
Loading historical data...
Loading historical data...
Loading historical data...
Loading historical data...
Loading historical data...
Loading historical data...

Documentation

Showing up to 5 results
|